Regional Weather Roundup
Issued by NWS Wakefield, VA

Home | Current Version | Previous Version | Text Only | Print | Product List | Glossary Off
Versions: 1 2 3 4 5 6 7 8 9 10 11 12 13 14 15 16 17 18 19 20 21 22 23 24 25 26 27

000
ASUS41 KAKQ 241515
RWRAKQ

REGIONAL WEATHER ROUNDUP
NATIONAL WEATHER SERVICE WAKEFIELD VA
1000 AM EST TUE JAN 24 2017

Note: "fair" indicates few or no clouds below 12,000 feet with no
significant weather and/or obstructions to visibility. * = Denotes
station may not report precipitation (e.g., rain,snow,etc.),
thunder or fog.

VAZ042-051-052>054-056-241600-
NORTHERN VIRGINIA

CITY           SKY/WX    TMP DP  RH WIND       PRES   REMARKS
WASH NATIONAL  MOSUNNY   43  37  79 N16G24    29.53R
DULLES         PTSUNNY   42  34  73 NW16G24   29.54R
FORT BELVOIR   MOSUNNY   43  35  72 NW12      29.53R
QUANTICO       PTSUNNY   45  37  73 N16G25    29.55R
FREDERICKSBRG* MOSUNNY   44  37  75 NW14G21   29.55R
STAFFORD*      MOSUNNY   43  37  79 NW17G26   29.59R
WARRENTON      MOSUNNY   45  33  64 NW13G22   29.54R
CULPEPER*      MOSUNNY   46  35  65 NW12G18   29.56R
MANASSAS*      PTSUNNY  N/A N/A N/A N21G29    29.56R
LEESBURG*      CLOUDY    43  37  81 NW17G24   29.56R
WINCHESTER     CLOUDY    37  34  87 NW16      29.57R
FRONT ROYAL*   CLOUDY    41  34  75 NW9       29.56R
LURAY*         PTSUNNY   41  36  81 N13       29.57R
$$

VAZ048-049-060>072-079>083-241600-
CENTRAL AND SOUTH CENTRAL VIRGINIA

CITY           SKY/WX    TMP DP  RH WIND       PRES   REMARKS
RICHMOND       MOSUNNY   44  35  70 NW21G29   29.56R
CHESTERFIELD*  FAIR      45  25  45 NW13      29.59R
PETERSBURG*    NOT AVBL
HANOVER        SUNNY     44  34  67 NW13      29.57R
TAPPAHANNOCK*  CLOUDY    42  36  78 NW10G18   29.54R
QUINTON*       FAIR      42  37  82 NW9G20    29.54R
CHARLOTTSVILLE PTSUNNY   45  33  63 VRB5      29.57R
GORDONSVILLE*  CLOUDY    44  36  73 SW5       29.57R
ORANGE*          N/A     45  34  65 SW7       29.58R
LOUISA*        MOSUNNY   46  39  76 W5        29.56R
BUMPASS*       FAIR      43  36  77 W7        29.56R
FARMVILLE*     MOSUNNY   46  36  68 CALM      29.59R
CREWE*         FAIR      45  35  69 NW8       29.59R
FORT PICKETT*  PTSUNNY   44  31  60 NW10G16   29.59R
CHASE CITY*    FAIR      45  35  68 W5        29.61S
CLARKSVILLE*   FAIR      45  37  76 NW8       29.61R
SOUTH HILL*    SUNNY     44  35  70 NW7       29.66R
LAWRENCEVILLE* FAIR      44  35  69 NW7       29.59R
EMPORIA*       SUNNY     43  34  70 NW8       29.61R
$$

VAZ088>098-241600-
SOUTHEAST VIRGINIA

CITY           SKY/WX    TMP DP  RH WIND       PRES   REMARKS
NORFOLK        CLOUDY    42  36  79 NW6G20    29.52R
VIRGINIA BEACH CLOUDY    41  36  82 NW13G22   29.51R
NORFOLK NAVAL  CLOUDY    42  36  79 NW21G26   29.54R
WEST POINT*    PTSUNNY   42  37  80 NW7G18    29.55R
SALUDA*        CLOUDY    40  37  89 NW12G18   29.51R
NEWPORT NEWS   CLOUDY    41  36  82 NW13      29.53R
LANGLEY AFB    CLOUDY    41  37  86 NW12G17   29.52R
FORT EUSTIS    CLOUDY    41  35  79 NW12G21   29.51R
WILLIAMSBURG*    N/A     45  39  81 NW16G22   29.54R
HR EXEC AP*    CLOUDY    41  36  81 NW6G16    29.53R
FRANKLIN*      MOSUNNY   43  36  76 NW12      29.57R
US460-WAKEFLD  MOSUNNY   43  36  76 NW9       29.56R
$$

VAZ020-022-025-037-045-241600-
WEST CENTRAL AND SOUTHWEST VIRGINIA

CITY           SKY/WX    TMP DP  RH WIND       PRES   REMARKS
STAUNTON*      SUNNY     39  32  77 CALM      29.60R
WAYNESBORO*    FAIR      38  33  82 NW5       29.58R
HOT SPRINGS VA CLOUDY    34  34 100 NW16G30   29.56R WCI  23
LYNCHBURG      MOSUNNY   47  34  60 VRB3      29.61R
DANVILLE       SUNNY     50  40  68 NW9G17    29.62R
SOUTH BOSTON*  FAIR      48  37  65 W10       29.62R
MARTINSVILLE   CLOUDY    49  36  59 NW13G24   29.66R
ROANOKE        MOSUNNY   49  34  56 NW12G33   29.67R
BLACKSBURG     CLOUDY    42  37  81 W12G18    29.70R
DUBLIN*        CLOUDY    45  38  76 NW18      29.70R
MARION*        CLOUDY    42  40  93 W14G25    29.76R
HILLSVILLE*    DRIZZLE   40  39  97 W17G26    29.66R
RICHLANDS*     DRIZZLE   38  38 100 W10       29.77R
WISE*          CLOUDY    37  37 100 NW8       29.81R FOG
ABINGDON*      CLOUDY    43  41  94 W7        29.81R
$$

MDZ021>025-VAZ099-100-241600-
SOUTHERN MARYLAND AND THE DELMARVA PENINSULA

CITY           SKY/WX    TMP DP  RH WIND       PRES   REMARKS
PATUXENT RIVER PTSUNNY   42  37  82 NW21      29.49R
BAY BRIDGE APT CLOUDY    41  36  81 NW15G24   29.49S
LEONARDTOWN    MOSUNNY   41  36  81 NW6       29.50F
DOVER          CLOUDY    40  40 100 NW15      29.42R
GEORGETOWN     CLOUDY    40  37  89 NW9G17    29.42R
EASTON         CLOUDY    41  36  81 N14G24    29.50R
CAMBRIDGE      CLOUDY    39  36  87 NW15G21   29.46R
SALISBURY      CLOUDY    40  37  89 NW12G22   29.43R
OCEAN CITY     CLOUDY    40  37  89 N15G23    29.41R
WALLOPS ISLAND CLOUDY    40  37  89 NW15G23   29.44R
ACCOMACK*      CLOUDY    41  37  86 NW17G30   29.47R
$$

NCZ012>017-030>032-241600-
NORTH CENTRAL AND EASTERN NORTH CAROLINA

CITY           SKY/WX    TMP DP  RH WIND       PRES   REMARKS
ROANOKE RAPIDS PTSUNNY   45  36  70 NW7       29.60R
RALEIGH        MOSUNNY   50  38  63 NW9       29.63R
ELIZABETH CITY CLOUDY    42  37  82 W14       29.54R
AHOSKIE*         N/A     44  35  71 N5        29.60R
EDENTON*       CLOUDY    46  38  73 NW15      29.58R
CURRITUCK*     CLOUDY    41  38  89 W13G18    29.54R
KILL DEVIL HLS NOT AVBL
MANTEO         CLOUDY    42  37  81 NW13G22   29.52R
CAPE HATTERAS  CLOUDY    45  38  76 NW13G30     N/A
TARBORO*       NOT AVBL
GOLDSBORO      MOSUNNY   49  41  73 W9        29.62R
WASHINGTON     SUNNY     48  36  62 NW8G22      N/A
GREENVILLE     SUNNY     50  36  57 NW9G16    29.65R
NEW BERN       MOSUNNY   48  38  68 W14G23    29.62R
WILMINGTON     CLOUDY    49  41  74 W13       29.65R
$$

VAZ048-241600-
ELSEWHERE

CITY           SKY/WX    TMP DP  RH WIND       PRES   REMARKS
HARRISBURG PA  CLOUDY    39  35  86 N13       29.52R
BALTIMORE      PTSUNNY   42  36  79 NW14G23   29.50R
ANNAPOLIS      CLOUDY    43  35  73 NW16      29.49R
ANDREWS AFB    PTSUNNY   42  36  79 NW21G28   29.50R
PHILADELPHIA   LGT RAIN  39  35  86 N15G25    29.43S
HENDERSON NC   SUNNY     46  33  62 N9        29.62R
GREENSBORO     MOSUNNY   51  40  65 NW16G24   29.63R
ROCKY MOUNT    SUNNY     48  37  65 NW13      29.62R
$$

VAZ100-241600-
MARINE

STATION/POSITION TIME  TEMP    WIND        PRES    WAVE   SWELL
                       AIR SEA DIR/SP/G            HT/PER HT/PER
                 (UTC) (F)     (DEG/KT/KT) (MB)    (FT/S) (FT/S)
CAPE MAY NJ      1442   38 43  330/ 19/ 24  994.7R
LEWES DE         1442          340/ 26/ 31  995.6R
OCEAN-CITY-INLET 1442          340/ 15/ 20  995.8R
WACHAPREAGUE VA  1442   41 47  300/  5/ 13  997.4R
THOMAS POINT MD  1500   41 40  340/ 19/ 25   N/A
GOOSES REEF MD   1500   41     330/ 16/ 19  999.5    3/ 3
COVE POINT MD    1448   40     350/ 21/ 27  998.8R
SOLOMONS ISLAND  1442          320/ 14/ 19   N/A
BISHOPS HEAD MD  1448          320/ 13/ 18  998.3R
PINEY POINT MD   1448          350/ 15/ 16   N/A
POTOMAC MD       1500   41 42  330/ 16/ 21  997.7    2/ 3
CAMBRIDGE MD     1442   41 42  320/ 19/ 23  996.9R
LEWISETTA VA     1448   41 44  340/ 11/ 14  998.6R
RAPPAHANNOCK LGT 1448          310/ 22/ 25  998.8R
STINGRAY PT      1450   40     340/ 16/ 21  999.1R
YORK RVR RNG VA  1442   41     330/ 18/ 20  998.7R
YORKTOWN VA      1448   41 44  310/ 18/ 21  999.3R
JAMESTOWN VA     1500   41 47  300/ 14/ 19   N/A     1/ 3
DOMINION TERM VA 1448   41     330/ 17/ 23  999.7R
CHES BAY BRIDGE  1448   41 45  310/ 20/ 23  999.2R
CAPE HENRY VA    1436   40     300/ 21/ 26   N/A
WILLOUBY STN VA  1448   41     320/ 17/ 22 1000.5R
S CRANEY ISL VA  1448          310/ 13/ 19  999.4R
CAPE HENRY BUOY  1442      46                N/A     7/11   3/11
OFFSHORE WE BUOY 1451      47                N/A     9/11   5/11
64NM E OF VA BCH 1450   44 53  310/ 25/ 29  996.5R  11/12   7/12
DUCK PIER NC     1436   41 46  300/ 15/ 18  998.7R
44100 DUCK FRF   1405      49                N/A     8/11   5/11
44056 DUCK FRF   1430      46                N/A     7/13   5/13
OREGON INLET NC  1442          290/ 15/ 21  999.2R
HATTERAS NC      1436   45 56  300/ 23/ 27  999.6R
DIAMOND SHLS NC  1450   47 74  310/ 23/ 27  999.6R   9/12   7/12
CAPE LOOKOUT NC  1400   45     300/ 19/ 24 1000.8R
$$




USA.gov is the U.S. government's official web portal to all federal, state and local government web resources and services.